National Weather Service Raw Text Product

Displaying AFOS PIL: RWRIA Received: 2017-09-14 00:00 UTC


046 
ASUS43 KDMX 140006
RWRIA 

WEATHER ROUNDUP FOR IOWA
NATIONAL WEATHER SERVICE DES MOINES IA
700 PM CDT WED SEP 13 2017

NOTE: "FAIR" INDICATES FEW OR NO CLOUDS BELOW 12,000 FEET WITH NO
SIGNIFICANT WEATHER AND/OR OBSTRUCTIONS TO VISIBILITY.

* - THESE STATIONS ARE NOT NWS STATIONS...THUS NOT UNDER NWS
QUALITY CONTROL.  THEY ALSO DO NOT REPORT WEATHER SUCH 
AS PRECIPITATION OR FOG.  

IAZ001>003-012>014-020>022-031>034-043>046-140100-
   NORTHWEST IOWA
  
CITY           SKY/WX    TMP DP  RH WIND       PRES   REMARKS
CARROLL *      CLEAR     79  64  61 SW6       29.72S HAZE    HX  81   
CHEROKEE *     PTCLDY    77  64  64 S5        29.71S                  
DENISON *      CLOUDY    75  68  78 MISG      29.73F                  
LE MARS *      CLEAR     79  64  61 S7        29.69S HX  81           
ORANGE CITY *  CLEAR     79  66  65 S6        29.71S HX  81           
SHELDON *      CLEAR     79  63  57 S5        29.69S HX  80           
SIOUX CITY     CLEAR     78  65  63 SE6       29.69F HX  80           
6HR MIN TEMP:  78; 6HR MAX TEMP:  86;                                

SPENCER        CLEAR     79  65  62 SW6       29.70S HX  81           
6HR MIN TEMP:  79; 6HR MAX TEMP:  88;                                

STORM LAKE *   CLEAR     77  66  69 SW5       29.73R                  
$$
 
IAZ055>058-069>071-079>083-090>094-140100-
   SOUTHWEST IOWA
  
CITY           SKY/WX    TMP DP  RH WIND       PRES   REMARKS
ATLANTIC *     CLEAR     77  64  65 CALM      29.73S                  
AUDUBON *      CLEAR     75  64  69 SW5       29.74S                  
CLARINDA *     CLEAR     79  68  69 CALM      29.75S HX  81           
COUNCIL BLFS * CLOUDY    79  64  61 SE6       29.72F HX  81           
CRESTON *      CLEAR     81  63  54 CALM      29.76R HX  82           
HARLAN  *      CLOUDY    79  66  65 S3        29.76S HX  81           
LAMONI         CLEAR     83  60  45 CALM      29.74R HX  83           
6HR MIN TEMP:  82; 6HR MAX TEMP:  88;                                

RED OAK *      PTCLDY    79  66  65 S5        29.73S HX  81           
SHENANDOAH *   CLOUDY    79  63  57 SE5       29.73S HX  80           
$$
 
IAZ047>049-059>061-072>074-084-140100-
   CENTRAL IOWA
  
CITY           SKY/WX    TMP DP  RH WIND       PRES   REMARKS
AMES           CLEAR     78  64  61 S6        29.71S HX  80           
6HR MIN TEMP:  78; 6HR MAX TEMP:  88;                                

ANKENY *       CLEAR     82  61  47 SW5       29.72S HX  83           
BOONE *        CLEAR     81  57  44 SW5       29.71S HX  81           
CHARITON *     CLEAR     81  61  50 E3        29.73S HX  81           
DES MOINES     PTCLDY    84  61  45 CALM      29.71S HX  84           
6HR MIN TEMP:  83; 6HR MAX TEMP:  88;                                

GRINNELL*      CLEAR     77  65  65 SE3       29.74S HAZE             
KNOXVILLE *    CLEAR     82  55  39 CALM      29.71S HX  82           
MARSHALLTOWN   CLEAR     79  65  62 SE3       29.71S HX  81           
6HR MIN TEMP:  79; 6HR MAX TEMP:  87;                                

NEWTON *       CLEAR     77  66  69 SE6       29.72S                  
PELLA *        CLEAR     82  58  45 CALM      29.73S HX  82           
PERRY *          N/A     79  60  51 SW5       29.72S HX  80           
$$
 
IAZ004>006-015-016-023>025-035-036-140100-
   NORTH CENTRAL IOWA
  
CITY           SKY/WX    TMP DP  RH WIND       PRES   REMARKS
ALGONA *       CLEAR     79  66  65 S6        29.70S HX  81           
CLARION *      CLEAR     79  64  61 S6        29.71S HX  81           
ESTHERVILLE    CLEAR     79  67  66 SW6       29.69S HX  81           
6HR MIN TEMP:  79; 6HR MAX TEMP:  85;                                

FORT DODGE *   CLEAR     79  62  56 SW5       29.71S HX  80           
MASON CITY     CLEAR     78  62  57 S5        29.72S HX  80           
6HR MIN TEMP:  78; 6HR MAX TEMP:  87;                                

FOREST CITY *    N/A     81  63  54 S3        29.71S HX  82           
WEBSTER CITY * CLEAR     79  61  53 S6        29.69S HX  80           
IOWA FALLS *     N/A     80  65  59 S5        29.73S HX  82           
$$

IAZ007>011-017>019-026>030-037>042-050>054-066-140100-
   NORTHEAST IOWA
  
CITY           SKY/WX    TMP DP  RH WIND       PRES   REMARKS
CEDAR RAPIDS   CLEAR     74  58  57 SE6       29.73S                  
6HR MIN TEMP:  74; 6HR MAX TEMP:  84;                                

CHARLES CITY * CLEAR     77  63  61 SE6       29.72S                  
CLINTON *      CLEAR     71  63  75 CALM      29.76R                  
DECORAH *      CLEAR     75  61  60 SE5       29.72S                  
DUBUQUE        CLEAR     73  54  51 CALM      29.76S                  
6HR MIN TEMP:  72; 6HR MAX TEMP:  81;                                

MONTICELLO *   CLEAR     73  57  56 SE5       29.74S                  
OELWEIN *      CLEAR     79  59  50 CALM      29.73S HX  80           
WATERLOO       CLEAR     81  58  45 CALM      29.70S HX  81           
6HR MIN TEMP:  81; 6HR MAX TEMP:  86;                                

$$
 
IAZ064-065-067-068-078-140100-
   EAST CENTRAL IOWA
  
CITY           SKY/WX    TMP DP  RH WIND       PRES   REMARKS
DAVENPORT      CLEAR     68  59  73 E3        29.77R                  
6HR MIN TEMP:  68; 6HR MAX TEMP:  82;                                

IOWA CITY      CLEAR     78  56  46 SE5       29.75R                  
6HR MIN TEMP:  78; 6HR MAX TEMP:  85;                                

MUSCATINE *    CLEAR     77  52  41 SE5       29.74S                  
QUAD CITIES    CLEAR     72  57  59 SE5       29.74R                  
6HR MIN TEMP:  72; 6HR MAX TEMP:  84;                                

$$
 
IAZ062-063-075>077-085>089-095>099-140100-
   SOUTHEAST IOWA
  
CITY           SKY/WX    TMP DP  RH WIND       PRES   REMARKS
BURLINGTON     CLEAR     74  57  55 CALM      29.74S                  
6HR MIN TEMP:  74; 6HR MAX TEMP:  80;                                

FAIRFIELD *    CLEAR     75  57  53 E6        29.73S                  
FORT MADISON * CLEAR     73  55  53 CALM      29.76S                  
KEOKUK *       CLEAR     75  57  53 SE3       29.74S                  
OSKALOOSA *      N/A     77  61  56 E3        29.73S                  
OTTUMWA        CLEAR     80  59  48 E8        29.73R HX  81           
6HR MIN TEMP:  80; 6HR MAX TEMP:  87;                                

WASHINGTON *   CLEAR     73  59  60 SE3       29.75S                  
$$

ABBREVIATIONS USED IN REMARKS
   TC - TEMPERATURES IN CELSIUS
  WCI - WIND CHILL INDEX
   HX - HEAT INDEX
  VSB - VISIBILITY  
$$

  

730 
ASUS43 KDMX 140001
RWRIA 

WEATHER ROUNDUP FOR IOWA
NATIONAL WEATHER SERVICE DES MOINES IA
700 PM CDT WED SEP 13 2017

NOTE: "FAIR" INDICATES FEW OR NO CLOUDS BELOW 12,000 FEET WITH NO
SIGNIFICANT WEATHER AND/OR OBSTRUCTIONS TO VISIBILITY.

* - THESE STATIONS ARE NOT NWS STATIONS...THUS NOT UNDER NWS
QUALITY CONTROL.  THEY ALSO DO NOT REPORT WEATHER SUCH 
AS PRECIPITATION OR FOG.  

IAZ001>003-012>014-020>022-031>034-043>046-140100-
   NORTHWEST IOWA
  
CITY           SKY/WX    TMP DP  RH WIND       PRES   REMARKS
CARROLL *      CLEAR     79  64  61 SW6       29.72S HAZE    HX  81   
CHEROKEE *     PTCLDY    77  64  64 S5        29.71S                  
DENISON *      CLOUDY    75  68  78 MISG      29.73F                  
LE MARS *      CLEAR     79  64  61 S7        29.69S HX  81           
ORANGE CITY *  CLEAR     79  66  65 S6        29.71S HX  81           
SHELDON *      CLEAR     79  63  57 S5        29.69S HX  80           
SIOUX CITY     CLEAR     78  65  63 SE6       29.69F HX  80           
6HR MIN TEMP:  78; 6HR MAX TEMP:  86;                                

SPENCER        CLEAR     79  65  62 SW6       29.70S HX  81           
6HR MIN TEMP:  79; 6HR MAX TEMP:  88;                                

STORM LAKE *   CLEAR     77  66  69 SW5       29.73R                  
$$
 
IAZ055>058-069>071-079>083-090>094-140100-
   SOUTHWEST IOWA
  
CITY           SKY/WX    TMP DP  RH WIND       PRES   REMARKS
ATLANTIC *     CLEAR     77  64  65 CALM      29.73S                  
AUDUBON *      CLEAR     75  64  69 SW5       29.74S                  
CLARINDA *     CLEAR     79  68  69 CALM      29.75S HX  81           
COUNCIL BLFS * CLOUDY    79  64  61 SE6       29.72F HX  81           
CRESTON *      CLEAR     81  63  54 CALM      29.76R HX  82           
HARLAN  *      CLOUDY    79  66  65 S3        29.76S HX  81           
LAMONI         CLEAR     83  60  45 CALM      29.74R HX  83           
6HR MIN TEMP:  82; 6HR MAX TEMP:  88;                                

RED OAK *      PTCLDY    79  66  65 S5        29.73S HX  81           
SHENANDOAH *   CLOUDY    79  63  57 SE5       29.73S HX  80           
$$
 
IAZ047>049-059>061-072>074-084-140100-
   CENTRAL IOWA
  
CITY           SKY/WX    TMP DP  RH WIND       PRES   REMARKS
AMES           CLEAR     78  64  61 S6        29.71S HX  80           
6HR MIN TEMP:  78; 6HR MAX TEMP:  88;                                

ANKENY *       CLEAR     82  61  47 SW5       29.72S HX  83           
BOONE *        CLEAR     81  57  44 SW5       29.71S HX  81           
CHARITON *     CLEAR     81  61  50 E3        29.73S HX  81           
DES MOINES     PTCLDY    84  61  45 CALM      29.71S HX  84           
6HR MIN TEMP:  83; 6HR MAX TEMP:  88;                                

GRINNELL*      CLEAR     77  65  65 SE3       29.74S HAZE             
KNOXVILLE *    CLEAR     82  55  39 CALM      29.71S HX  82           
MARSHALLTOWN   CLEAR     79  65  62 SE3       29.71S HX  81           
6HR MIN TEMP:  79; 6HR MAX TEMP:  87;                                

NEWTON *       CLEAR     77  66  69 SE6       29.72S                  
PELLA *        CLEAR     82  58  45 CALM      29.73S HX  82           
PERRY *          N/A     79  60  51 SW5       29.72S HX  80           
$$
 
IAZ004>006-015-016-023>025-035-036-140100-
   NORTH CENTRAL IOWA
  
CITY           SKY/WX    TMP DP  RH WIND       PRES   REMARKS
ALGONA *       CLEAR     79  66  65 S6        29.70S HX  81           
CLARION *      CLEAR     79  64  61 S6        29.71S HX  81           
ESTHERVILLE    CLEAR     79  67  66 SW6       29.69S HX  81           
6HR MIN TEMP:  79; 6HR MAX TEMP:  85;                                

FORT DODGE *   CLEAR     79  62  56 SW5       29.71S HX  80           
MASON CITY     CLEAR     78  62  57 S5        29.72S HX  80           
6HR MIN TEMP:  78; 6HR MAX TEMP:  87;                                

FOREST CITY *    N/A     81  63  54 S3        29.71S HX  82           
WEBSTER CITY * CLEAR     79  61  53 S6        29.69S HX  80           
IOWA FALLS *     N/A     80  65  59 S5        29.73S HX  82           
$$

IAZ007>011-017>019-026>030-037>042-050>054-066-140100-
   NORTHEAST IOWA
  
CITY           SKY/WX    TMP DP  RH WIND       PRES   REMARKS
CEDAR RAPIDS   CLEAR     74  58  57 SE6       29.73S                  
6HR MIN TEMP:  74; 6HR MAX TEMP:  84;                                

CHARLES CITY * CLEAR     77  63  61 SE6       29.72S                  
CLINTON *      CLEAR     71  63  75 CALM      29.76R                  
DECORAH *      CLEAR     75  61  60 SE5       29.72S                  
DUBUQUE        CLEAR     73  54  51 CALM      29.76S                  
6HR MIN TEMP:  72; 6HR MAX TEMP:  81;                                

MONTICELLO *   CLEAR     73  57  56 SE5       29.74S                  
OELWEIN *      CLEAR     79  59  50 CALM      29.73S HX  80           
WATERLOO       CLEAR     81  58  45 CALM      29.70S HX  81           
6HR MIN TEMP:  81; 6HR MAX TEMP:  86;                                

$$
 
IAZ064-065-067-068-078-140100-
   EAST CENTRAL IOWA
  
CITY           SKY/WX    TMP DP  RH WIND       PRES   REMARKS
DAVENPORT      CLEAR     68  59  73 E3        29.77R                  
6HR MIN TEMP:  68; 6HR MAX TEMP:  82;                                

IOWA CITY      CLEAR     78  56  46 SE5       29.75R                  
6HR MIN TEMP:  78; 6HR MAX TEMP:  85;                                

MUSCATINE *    CLEAR     77  52  41 SE5       29.74S                  
QUAD CITIES    CLEAR     72  57  59 SE5       29.74R                  
6HR MIN TEMP:  72; 6HR MAX TEMP:  84;                                

$$
 
IAZ062-063-075>077-085>089-095>099-140100-
   SOUTHEAST IOWA
  
CITY           SKY/WX    TMP DP  RH WIND       PRES   REMARKS
BURLINGTON     CLEAR     74  57  55 CALM      29.74S                  
6HR MIN TEMP:  74; 6HR MAX TEMP:  80;                                

FAIRFIELD *    CLEAR     75  57  53 E6        29.73S                  
FORT MADISON * CLEAR     73  55  53 CALM      29.76S                  
KEOKUK *       CLEAR     75  57  53 SE3       29.74S                  
OSKALOOSA *      N/A     77  61  56 E3        29.73S                  
OTTUMWA        CLEAR     80  59  48 E8        29.73R HX  81           
6HR MIN TEMP:  80; 6HR MAX TEMP:  87;                                

WASHINGTON *   CLEAR     73  59  60 SE3       29.75S                  
$$

ABBREVIATIONS USED IN REMARKS
   TC - TEMPERATURES IN CELSIUS
  WCI - WIND CHILL INDEX
   HX - HEAT INDEX
  VSB - VISIBILITY  
$$